www.pogodaiklimat.ru

Погода и климат >> Архив погоды >> Австралия >> Западная Австралия >> Уиндем


ПОГОДА в Уиндеме

  • Прогноз погоды в Уиндеме
  • Монитор погоды в Уиндеме

АРХИВ ПОГОДЫ в Уиндеме

Время (UTC), дата Ветер
(напр.,м/с)
 
Видим.   Явления Облачность Т
(С)
Тd
(С)
f
(%)
Тe
(С)
Тes
(С)
Комфортность P
(гПа)
Po
(гПа)
Тmin
(С)
Tmax
(С)
R
(мм)
R24
(мм)
S
(см)
16 15.07 В 3 н/о н/о +17.1 -2.0 27 +17 +17 1018.0 1017.5
17 15.07 В 3 н/о н/о +16.6 -3.5 25 +17 +17 1017.6 1017.1
18 15.07 В 5 н/о н/о +18.8 -4.0 21 +18 +18 1017.1 1016.6
19 15.07 В 6 н/о н/о +19.9 -5.8 17 +19 +19 1016.7 1016.2
20 15.07 В 6 н/о н/о +20.1 -5.7 17 +19 +19 1016.8 1016.3
21 15.07 В 5 н/о н/о +20.2 -6.4 16 +20 +20 1017.2 1016.7
22 15.07 В 5 н/о н/о +20.1 -5.7 17 +20 +20 1017.9 1017.4
23 15.07 В 6 н/о н/о +21.3 -5.5 16 +20 +20 1018.8 1018.3
00 16.07 В 9 н/о н/о +23.1 -5.8 14 +21 +21 комфорт 1019.1 1018.6
01 16.07 В 9 н/о н/о +23.9 -6.2 13 +22 +22 комфорт 1019.1 1018.6 +15.5
02 16.07 ЮВ 7 н/о н/о +24.8 -5.5 13 +23 +23 комфорт 1018.7 1018.2
03 16.07 ЮВ 6 н/о н/о +26.0 -5.6 12 +23 +23 комфорт 1017.5 1017.0
04 16.07 ЮВ 5 н/о н/о +27.2 -4.6 12 +24 +24 комфорт 1016.4 1015.9
05 16.07 ЮВ 5 н/о н/о +28.1 -3.9 12 +25 +25 комфорт 1015.5 1015.0
06 16.07 Ю 6 н/о н/о +28.5 -2.6 13 +26 +26 жарко 1014.7 1014.2
07 16.07 ЮВ 6 н/о н/о +28.2 -2.8 13 +25 +25 комфорт 1014.5 1014.0
08 16.07 ЮВ 6 н/о н/о +27.5 -3.3 13 +25 +25 комфорт 1014.6 1014.1
09 16.07 ЮВ 5 н/о н/о +25.7 -3.8 14 +23 +23 комфорт 1015.0 1014.5
10 16.07 В 4 н/о н/о +21.6 -3.0 19 +21 +21 комфорт 1015.6 1015.1
11 16.07 ЮВ 2 н/о н/о +21.4 -2.5 20 +21 +21 комфорт 1016.2 1015.7
12 16.07 ЮВ 2 н/о н/о +21.3 -2.5 20 +21 +21 комфорт 1016.7 1016.2
13 16.07 ЮВ 2 н/о н/о +18.0 -2.3 25 +19 +19 1016.9 1016.4 +29.2
14 16.07 ЮВ 3 н/о н/о +17.9 -1.9 26 +18 +18 1016.9 1016.4
15 16.07 ЮВ 3 н/о н/о +17.4 -1.8 27 +17 +17 1016.7 1016.2
16 16.07 ЮВ 4 н/о н/о +18.3 -2.6 24 +18 +18 1016.7 1016.2
17 16.07 ЮВ 4 н/о н/о +18.3 -2.6 24 +18 +18 1016.3 1015.8
18 16.07 ЮВ 3 н/о н/о +18.1 -2.2 25 +18 +18 1015.8 1015.3
19 16.07 В 2 н/о н/о +18.9 -1.5 25 +19 +19 1016.0 1015.5
20 16.07 В 3 н/о н/о +16.3 -2.7 27 +16 +16 1016.1 1015.6
21 16.07 ЮВ 2 н/о н/о +15.3 -2.2 30 +15 +15 1016.5 1016.0
22 16.07 ЮВ 3 н/о н/о +13.8 -2.2 33 +13 +13 1016.7 1016.2
23 16.07 В 4 н/о н/о +20.9 -0.4 24 +21 +21 комфорт 1017.3 1016.8
00 17.07 В 8 н/о н/о +23.5 -2.2 18 +22 +22 комфорт 1017.8 1017.3
01 17.07 В 8 н/о н/о +24.9 -2.6 16 +23 +23 комфорт 1017.6 1017.1 +13.5
03 17.07 В 7 н/о н/о +27.4 -2.4 14 +25 +25 комфорт 1016.1 1015.6
04 17.07 В 5 н/о н/о +28.9 -2.3 13 +26 +26 жарко 1015.0 1014.5
05 17.07 В 5 н/о н/о +29.2 -3.1 12 +26 +26 жарко 1013.8 1013.3
06 17.07 ЮВ 3 н/о н/о +29.5 -2.9 12 +26 +26 жарко 1012.9 1012.4
07 17.07 Ю 4 н/о н/о +29.8 -3.8 11 +26 +26 жарко 1012.3 1011.8
08 17.07 ЮВ 5 н/о н/о +29.5 -2.9 12 +26 +26 жарко 1012.5 1012.0
09 17.07 ЮВ 6 н/о н/о +27.4 -2.4 14 +25 +25 комфорт 1013.2 1012.7
10 17.07 ЮВ 5 н/о н/о +25.8 -1.9 16 +24 +24 комфорт 1013.9 1013.4
11 17.07 В 3 н/о н/о +22.3 -1.7 20 +21 +21 комфорт 1014.6 1014.1
12 17.07 В 2 н/о н/о +22.7 -1.4 20 +22 +22 комфорт 1015.2 1014.7
13 17.07 В 2 н/о н/о +22.0 -2.0 20 +21 +21 комфорт 1015.0 1014.5 +31.3
14 17.07 В 2 н/о н/о +18.3 -2.0 25 +19 +19 1015.1 1014.6
15 17.07 штиль 0 н/о н/о +17.8 -0.9 28 +18 +18 1015.1 1014.6
16 17.07 В 1 н/о н/о +16.3 -0.8 31 +18 +18 1015.0 1014.5
17 17.07 В 2 н/о н/о +16.7 -0.5 31 +17 +17 1014.6 1014.1
18 17.07 штиль 0 н/о н/о +15.5 -0.3 34 +16 +16 1014.5 1014.0
19 17.07 штиль 0 н/о н/о +16.2 +0.3 34 +16 +16 1014.6 1014.1
20 17.07 штиль 0 н/о н/о +15.8 +0.4 35 +16 +16 1014.9 1014.4
21 17.07 В 2 н/о н/о +14.9 -0.4 35 +15 +15 1015.2 1014.7
22 17.07 В 2 н/о н/о +14.7 +0.2 37 +15 +15 1015.7 1015.2
23 17.07 В 4 н/о н/о +21.8 +2.0 27 +22 +22 комфорт 1016.3 1015.8
00 18.07 В 7 н/о н/о +25.0 +0.5 20 +24 +24 комфорт 1017.0 1016.5
01 18.07 В 8 н/о н/о +26.5 -0.5 17 +24 +24 комфорт 1016.8 1016.3 +14.5
02 18.07 В 7 н/о н/о +28.0 -1.0 15 +25 +25 комфорт 1016.2 1015.7
03 18.07 В 6 н/о н/о +29.6 -0.7 14 +27 +27 жарко 1015.3 1014.8
04 18.07 В 6 н/о н/о +30.1 -1.3 13 +27 +27 жарко 1014.2 1013.7
05 18.07 В 4 н/о н/о +30.8 -0.8 13 +28 +28 жарко 1013.1 1012.6
06 18.07 В 3 н/о н/о +31.7 -1.2 12 +28 +28 жарко 1012.3 1011.8
07 18.07 В 5 н/о н/о +31.8 -2.3 11 +28 +28 жарко 1011.8 1011.3
08 18.07 В 3 н/о н/о +31.3 -1.5 12 +28 +28 жарко 1011.9 1011.4
09 18.07 В 3 н/о н/о +29.3 -1.9 13 +26 +26 жарко 1012.2 1011.7
10 18.07 В 2 н/о н/о +24.9 -1.8 17 +23 +23 комфорт 1012.8 1012.3
11 18.07 В 3 н/о н/о +23.7 -0.6 20 +22 +22 комфорт 1013.6 1013.1
12 18.07 В 4 н/о н/о +22.6 -0.2 22 +22 +22 комфорт 1014.1 1013.6
13 18.07 штиль 0 н/о н/о +20.2 +0.1 26 +20 +20 1014.5 1014.0 +32.3
14 18.07 В 3 н/о н/о +18.9 +1.9 32 +19 +19 1014.3 1013.8
15 18.07 В 2 н/о н/о +17.2 +0.4 32 +18 +18 1014.3 1013.8
16 18.07 штиль 0 н/о н/о +15.7 +0.7 36 +16 +16 1014.2 1013.7
17 18.07 В 2 н/о н/о +14.9 +0.7 38 +15 +15 1013.8 1013.3
18 18.07 В 2 н/о н/о +15.2 +1.7 40 +16 +16 1013.7 1013.2
19 18.07 В 1 н/о н/о +16.6 +2.2 38 +18 +18 1014.0 1013.5
20 18.07 В 2 н/о н/о +15.1 +0.9 38 +15 +15 1014.0 1013.5
21 18.07 В 1 н/о н/о +14.1 +1.1 41 +15 +15 1014.1 1013.6
22 18.07 штиль 0 н/о н/о +12.8 +0.9 44 +13 +13 1014.5 1014.0
23 18.07 штиль 0 н/о н/о +17.4 +1.8 35 +17 +17 1015.3 1014.8
00 19.07 ЮВ 3 н/о н/о +25.3 -0.7 18 +24 +24 комфорт 1015.6 1015.1
01 19.07 В 6 н/о н/о +27.9 -2.0 14 +25 +25 комфорт 1015.8 1015.3 +11.9
02 19.07 В 5 н/о н/о +30.8 +0.2 14 +28 +28 жарко 1015.3 1014.8
03 19.07 СВ 6 н/о н/о +31.6 -0.1 13 +28 +28 жарко 1014.4 1013.9
04 19.07 СВ 6 н/о н/о +32.4 -0.6 12 +29 +29 жарко 1013.2 1012.7
05 19.07 В 5 н/о н/о +33.0 -0.2 12 +30 +30 жарко 1012.2 1011.7
06 19.07 В 4 н/о н/о +33.8 +0.5 12 +30 +30 жарко 1011.7 1011.2
07 19.07 С 6 н/о н/о +32.2 +4.9 18 +30 +30 жарко 1011.5 1011.0
08 19.07 СЗ 5 н/о н/о +31.3 +4.9 19 +29 +29 жарко 1011.7 1011.2
09 19.07 СЗ 4 н/о н/о +28.9 +5.1 22 +27 +27 жарко 1012.1 1011.6
10 19.07 С 3 н/о н/о +25.7 +4.8 26 +25 +25 комфорт 1012.6 1012.1
11 19.07 С 1 н/о н/о +22.5 +4.5 31 +23 +23 комфорт 1013.2 1012.7
12 19.07 Ю 3 н/о н/о +20.4 +3.6 33 +21 +21 комфорт 1014.1 1013.6
13 19.07 В 4 н/о н/о +21.0 +5.8 37 +22 +22 комфорт 1014.5 1014.0 +34.5
14 19.07 В 3 н/о н/о +19.8 +6.2 41 +21 +21 комфорт 1014.7 1014.2
15 19.07 В 4 н/о н/о +19.3 +7.4 46 +20 +20 1014.6 1014.1
16 19.07 В 2 н/о н/о +17.6 +6.2 47 +18 +18 1014.5 1014.0
17 19.07 В 2 н/о н/о +16.4 +5.7 49 +17 +17 1014.3 1013.8
18 19.07 В 2 н/о н/о +16.3 +5.0 47 +16 +16 1014.2 1013.7
19 19.07 В 2 н/о н/о +16.8 +4.5 44 +17 +17 1014.1 1013.6
20 19.07 В 2 н/о н/о +15.4 +4.2 47 +15 +15 1014.1 1013.6
21 19.07 В 2 н/о н/о +14.0 +4.3 52 +14 +14 1013.8 1013.3
22 19.07 З 2 н/о н/о +14.1 +4.9 54 +14 +14 1015.0 1014.5
23 19.07 З 1 н/о н/о +20.6 +5.8 38 +23 +23 комфорт 1015.7 1015.2
00 20.07 З 2 н/о н/о +24.2 +3.5 26 +24 +24 комфорт 1015.7 1015.2
01 20.07 ЮВ 2 н/о н/о +28.2 +1.7 18 +26 +26 жарко 1015.8 1015.3 +13.3
02 20.07 В 4 н/о н/о +30.4 +1.8 16 +28 +28 жарко 1015.1 1014.6
03 20.07 СВ 4 н/о н/о +32.1 +4.0 17 +30 +30 жарко 1014.1 1013.6
04 20.07 СВ 4 н/о н/о +33.3 +4.1 16 +31 +31 жарко 1013.0 1012.5
05 20.07 З 3 н/о н/о +33.5 +5.9 18 +31 +31 жарко 1011.8 1011.3
06 20.07 С 4 н/о н/о +34.5 +6.7 18 +32 +32 жарко 1011.2 1010.7
07 20.07 С 4 н/о н/о +34.4 +7.5 19 +33 +33 жарко 1010.9 1010.4
08 20.07 С 4 н/о н/о +33.1 +7.1 20 +31 +31 жарко 1011.0 1010.5
09 20.07 СЗ 4 н/о н/о +30.2 +8.0 25 +29 +29 жарко 1011.4 1010.9
10 20.07 С 3 н/о н/о +27.0 +8.4 31 +27 +27 жарко 1011.8 1011.3
11 20.07 штиль 0 н/о н/о +23.7 +7.3 35 +24 +24 комфорт 1012.3 1011.8
12 20.07 З 3 н/о н/о +23.1 +8.4 39 +24 +24 комфорт 1013.0 1012.5
13 20.07 штиль 0 н/о н/о +20.2 +7.2 43 +21 +21 комфорт 1013.2 1012.7 +34.9
14 20.07 ЮЗ 2 н/о н/о +18.8 +8.2 50 +20 +20 1013.3 1012.8
15 20.07 В 5 н/о н/о +20.6 +9.2 48 +22 +22 комфорт 1013.2 1012.7
16 20.07 В 4 н/о н/о +19.6 +8.9 50 +21 +21 комфорт 1012.9 1012.4
17 20.07 В 2 н/о н/о +18.6 +7.7 49 +19 +19 1012.6 1012.1
18 20.07 Ю 1 н/о н/о +18.8 +9.3 54 +20 +20 1012.6 1012.1
19 20.07 Ю 3 н/о н/о +16.7 +7.4 54 +17 +17 1012.5 1012.0
20 20.07 Ю 2 н/о н/о +17.4 +7.5 52 +18 +18 1012.6 1012.1
21 20.07 В 4 н/о н/о +15.8 +8.1 60 +15 +15 1013.2 1012.7
22 20.07 В 3 н/о н/о +15.4 +8.6 64 +15 +15 1013.4 1012.9
23 20.07 В 3 н/о н/о +19.6 +10.3 55 +21 +21 комфорт 1014.0 1013.5
00 21.07 В 4 н/о н/о +23.6 +12.6 50 +26 +26 жарко 1014.5 1014.0
01 21.07 В 3 н/о н/о +26.9 +9.7 34 +27 +27 жарко 1014.5 1014.0 +15.3
02 21.07 СВ 3 н/о н/о +29.5 +9.1 28 +29 +29 жарко 1013.9 1013.4
03 21.07 С 3 н/о н/о +31.6 +8.6 24 +31 +31 жарко 1013.2 1012.7
04 21.07 СВ 4 н/о н/о +32.7 +10.1 25 +32 +32 жарко 1012.0 1011.5
05 21.07 С 3 н/о н/о +32.4 +8.6 23 +31 +31 жарко 1010.9 1010.4
06 21.07 С 3 н/о н/о +33.3 +8.7 22 +32 +32 жарко 1010.0 1009.5
07 21.07 СВ 3 н/о н/о +33.1 +8.5 22 +32 +32 жарко 1009.5 1009.0
08 21.07 С 5 н/о н/о +32.1 +9.0 24 +31 +31 жарко 1009.6 1009.1
09 21.07 СЗ 4 н/о н/о +29.5 +9.1 28 +29 +29 жарко 1010.1 1009.6
10 21.07 С 3 н/о н/о +27.0 +11.1 37 +28 +28 жарко 1010.7 1010.2
11 21.07 С 2 н/о н/о +25.9 +8.0 32 +26 +26 жарко 1011.4 1010.9
12 21.07 С 2 н/о н/о +24.7 +8.2 35 +25 +25 комфорт 1011.9 1011.4
13 21.07 ЮВ 5 н/о н/о +23.8 +13.1 51 +26 +26 жарко 1012.1 1011.6 +34.5
14 21.07 В 4 н/о н/о +21.1 +13.5 62 +24 +24 комфорт 1011.9 1011.4
15 21.07 В 5 н/о н/о +20.2 +14.6 70 +23 +23 комфорт 1011.6 1011.1
16 21.07 В 2 н/о н/о +18.7 +14.4 76 +20 +20 1012.2 1011.7
17 21.07 В 2 н/о н/о +17.8 +12.7 72 +18 +18 1012.3 1011.8
18 21.07 штиль 0 н/о н/о +18.1 +13.8 76 +18 +18 1011.8 1011.3
19 21.07 В 2 н/о н/о +17.8 +11.8 68 +18 +18 1011.8 1011.3
20 21.07 В 1 н/о н/о +16.4 +10.0 66 +17 +17 1012.0 1011.5
21 21.07 В 3 н/о н/о +16.5 +14.0 85 +16 +16 1012.4 1011.9
22 21.07 В 2 н/о н/о +16.2 +14.0 87 +16 +16 1013.0 1012.5
23 21.07 В 3 н/о н/о +19.3 +16.0 81 +21 +21 комфорт 1013.7 1013.2
00 22.07 ЮВ 4 н/о н/о +23.3 +16.4 65 +28 +28 душно 1014.5 1014.0
01 22.07 ЮВ 1 н/о н/о +26.8 +15.2 49 +30 +30 душно 1014.5 1014.0 +15.8
02 22.07 З 2 н/о н/о +28.3 +15.2 45 +31 +31 душно 1013.8 1013.3
03 22.07 З 3 н/о н/о +30.9 +12.8 33 +32 +32 жарко 1012.8 1012.3
04 22.07 СЗ 3 н/о н/о +32.0 +10.7 27 +32 +32 жарко 1011.8 1011.3
05 22.07 З 3 н/о н/о +33.2 +11.1 26 +33 +33 жарко 1010.5 1010.0
06 22.07 С 3 н/о н/о +34.1 +8.7 21 +33 +33 жарко 1010.0 1009.5
07 22.07 С 4 н/о н/о +33.4 +9.4 23 +32 +32 жарко 1009.8 1009.3
08 22.07 СЗ 4 н/о н/о +33.0 +7.1 20 +31 +31 жарко 1010.2 1009.7
09 22.07 С 4 н/о н/о +30.5 +8.3 25 +30 +30 жарко 1010.4 1009.9
10 22.07 С 4 н/о н/о +29.1 +7.7 26 +28 +28 жарко 1010.7 1010.2
11 22.07 С 3 н/о н/о +27.3 +9.6 33 +28 +28 жарко 1011.6 1011.1
12 22.07 СЗ 3 н/о н/о +26.6 +9.0 33 +27 +27 жарко 1012.5 1012.0
13 22.07 ЮВ 3 н/о н/о +23.8 +9.8 41 +25 +25 комфорт 1012.8 1012.3 +34.8
14 22.07 Ю 3 н/о н/о +23.0 +12.9 53 +26 +26 жарко 1013.2 1012.7
15 22.07 В 3 н/о н/о +21.0 +14.2 65 +24 +24 комфорт 1013.4 1012.9
16 22.07 В 3 н/о н/о +19.1 +13.3 69 +20 +20 1013.7 1013.2

 

Местоположение метеостанции Уиндем (Западная Австралия, Австралия): широта -15.50 долгота 128.15 высота над уровнем моря 4 м.

В архиве по умолчанию представлена погода в Уиндеме за последнюю неделю. Архивные данные за месяц целиком и за предыдущие месяцы, начиная с января 2011 года, Вы можете получить, выбрав интересующий диапазон дат из раскрывающегося списка и нажав кнопку "Ввод!".


*Определитесь, кто Вы:
робот инопланетянин человек

Внимание! Время в таблицах - всемирное. Для получения местного времени необходимо прибавить поправку, которая равна 8 ч.

Смотрите также архив погоды в соседних городах и на ближайших метеорологических станциях:

Погода в Кунунарре (Западная Австралия, Австралия) (68 км)
Погода в Аэропорту Аргайл (Западная Австралия, Австралия) (130 км)
Погода в Порт Китс (Северная территория, Австралия) (203 км)
Погода в Калумбуру (Западная Австралия, Австралия) (209 км)
Погода в Трускотте (Западная Австралия, Австралия) (247 км)
Погода на Острове Троутон (Западная Австралия, Австралия) (290 км)
Погода в Манбуллу Ксиро (Северная территория, Австралия) (291 км)
Погода в Холс Крик (Западная Австралия, Австралия) (308 км)
Погода в Виктория-Ривер (Северная территория, Австралия) (323 км)
Погода на Маяке Кейп-Дон (Северная территория, Австралия) (375 км)

Пояснения к столбцам:

Ветер - указаны скорость ветра в м/с - средняя за 10 мин, порывы в срок и между сроками (в фигурных скобках) и направление, откуда дует ветер: С - северный, СВ - северо-восточный, В - восточный, ЮВ - юго-восточный, Ю - южный, ЮЗ - юго-западный, З - западный, СЗ - северо-западный.
Видимость - горизонтальная дальность видимости в метрах или километрах. При видимости от 1 до 10 км при отсутствии осадков обычно наблюдается дымка, при ухудшении видимости до 1 км и менее - туман. В сухую погоду видимость может ухудшаться дымом, пылью или мглою.
Явления - указаны атмосферные явления, наблюдавшиеся в срок или в последний час перед сроком; фигурными скобками обозначены явления, наблюдавшиеся между сроками (за 1-3 часа до срока); квадратными скобками обозначены град или гололедные отложения с указанием их диаметра в мм.
Облачность - указаны через наклонную черту общая и нижняя облачность в баллах и высота нижней границы облаков в метрах; квадратными скобками обозначены формы облаков: Ci - перистые, Cs - перисто-слоистые, Cc - перисто-кучевые, Ac - высококучевые, As - высокослоистые, Sc - слоисто-кучевые, Ns - слоисто-дождевые, Cu - кучевые, Cb - кучево-дождевые. Подробнее классификацию облаков см. в Атласе облаков (PDF).
T - Температура воздуха - температура, измеренная на высоте 2 м над землей.
Td - Температура точки росы - температура, при понижении до которой содержащийся в воздухе водяной пар достигнет насыщения.
f - Относительная влажность воздуха - влажноcть воздуха, измеренная на высоте 2 м над землей.
Te - Эффективная температура - температура, которую ощущает одетый по сезону человек в тени. Характеристика душности погоды. При расчете учитывается влияние влажности воздуха и скорости ветра на теплоощущения человека.
Tes - Эффективная температура на солнце - температура, которую ощущает человек, с поправкой на солнечный нагрев. Характеристика знойности погоды. Зависит от высоты солнца над горизонтом, облачности и скорости ветра. Ночью, в пасмурную погоду, а также при ветре 12 м/с и более поправка равна нулю.
P - Атмосферное давление - приведенное к уровню моря атмосферное давление.
Po - Атмосферное давление - измеренное на уровне метеостанции атмосферное давление.
Tmin - Минимальная температура - минимум температуры воздуха на высоте 2 м над землей.
Tmax - Максимальная температура - максимум температуры воздуха на высоте 2 м над землей.
R - Количество осадков - Количество выпавших осадков за период времени, мм. При наведении курсора мыши на число - период времени, за который выпало указанное количество осадков.
R24 - Количество осадков - Количество выпавших осадков за 24 часа, мм.
S - Снежный покров - Высота снежного покрова, см. При наведении курсора мыши на число - состояние снежного покрова и степень покрытия местности в баллах.